Regional Weather Roundup
Issued by NWS

Home | Current Version | Previous Version | Text Only | Print | Product List | Glossary Off
Versions: 1 2 3 4 5 6 7 8 9 10 11 12 13 14 15 16 17 18 19 20 21 22 23 24 25 26 27 28 29 30 31 32 33 34 35 36 37 38 39 40 41 42 43 44 45 46 47 48 49 50

775
ASUS43 KBIS 171902
RWRND

NORTH DAKOTA REGIONAL WEATHER ROUNDUP
NATIONAL WEATHER SERVICE BISMARCK ND
100 PM CST SUN DEC 17 2017

NOTE: "FAIR" INDICATES FEW OR NO CLOUDS BELOW 12,000 FEET WITH NO
SIGNIFICANT WEATHER AND/OR OBSTRUCTIONS TO VISIBILITY.


NDZ001>003-009>011-017-172000-
NORTHWEST NORTH DAKOTA

CITY           SKY/WX    TMP DP  RH WIND       PRES   REMARKS
WILLISTON      SUNNY     34  26  72 SW10      29.80F
MINOT          SUNNY     38  23  55 S17       29.83F
MINOT AFB      SUNNY     38  21  49 SW16      29.82F
$$

NDZ018>021-031>035-040>046-172000-
SOUTHWEST NORTH DAKOTA

CITY           SKY/WX    TMP DP  RH WIND       PRES   REMARKS
BISMARCK       SUNNY     37  25  61 SW7       29.92F
DICKINSON      MOSUNNY   38  25  59 SW17      29.82F
GARRISON         N/A     35  23  61 SW13      29.86F
HETTINGER ARPT PTSUNNY   39  22  50 S17       29.88F
$$

NDZ004>008-012>016-024-026-027-054-172000-
NORTHEAST NORTH DAKOTA

CITY           SKY/WX    TMP DP  RH WIND       PRES   REMARKS
GRAND FORKS    SUNNY     26  22  84 SW8       29.93F WCI  18
GRND FRKS AFB  SUNNY     31  19  61 SW9       29.92F
DEVILS LAKE    SUNNY     31  23  72 S6        29.90F
$$

NDZ022-023-025-028>030-036>039-047>053-172000-
SOUTHEAST NORTH DAKOTA

CITY           SKY/WX    TMP DP  RH WIND       PRES   REMARKS
FARGO          SUNNY     30  28  92 S9        29.98F
JAMESTOWN      SUNNY     37  27  67 SW5       29.92F
$$





USA.gov is the U.S. government's official web portal to all federal, state and local government web resources and services.